Time,TemperatureF,DewpointF,PressureIn,WindDirection,WindDirectionDegrees,WindSpeedMPH,WindSpeedGustMPH,Humidity,HourlyPrecipIn,Conditions,Clouds,dailyrainin,SoftwareType,DateUTC
2013-01-13 00:03:00,39.3,39.3,30.13,SW,217,0.0,0.0,100,0.00,RA,,0.00,WeatherDisplay:10.37,2013-01-13 05:03:00,
2013-01-13 00:06:00,39.0,39.0,30.13,SSW,210,2.3,0.0,100,0.00,RA,,0.00,WeatherDisplay:10.37,2013-01-13 05:06:00,
2013-01-13 00:07:00,39.1,39.1,30.13,SSW,210,0.0,0.0,100,0.00,RA,,0.00,WeatherDisplay:10.37,2013-01-13 05:07:00,
2013-01-13 00:11:00,39.1,39.1,30.13,SSW,210,0.0,0.0,100,0.00,,,0.00,WeatherDisplay:10.37,2013-01-13 05:11:00,
2013-01-13 00:16:00,39.2,39.2,30.13,SSW,210,0.0,0.0,100,0.00,,,0.00,WeatherDisplay:10.37,2013-01-13 05:16:00,
2013-01-13 00:21:00,39.2,39.2,30.13,SSW,210,0.0,0.0,100,0.00,,,0.00,WeatherDisplay:10.37,2013-01-13 05:21:00,
2013-01-13 00:26:00,39.4,39.4,30.13,SSW,210,0.0,0.0,100,0.00,,,0.00,WeatherDisplay:10.37,2013-01-13 05:26:00,
2013-01-13 00:31:00,39.3,39.3,30.13,SSW,210,0.0,0.0,100,0.00,,,0.00,WeatherDisplay:10.37,2013-01-13 05:31:00,
2013-01-13 00:36:00,39.4,39.4,30.13,SSW,210,0.0,0.0,100,0.00,,,0.00,WeatherDisplay:10.37,2013-01-13 05:36:00,
2013-01-13 00:41:00,39.3,39.3,30.13,SSW,210,0.0,0.0,100,0.00,,,0.00,WeatherDisplay:10.37,2013-01-13 05:41:00,
2013-01-13 00:46:00,39.3,39.3,30.13,SSW,210,0.0,0.0,100,0.00,,,0.00,WeatherDisplay:10.37,2013-01-13 05:46:00,
2013-01-13 00:51:00,39.0,39.0,30.13,SSW,210,0.0,0.0,100,0.00,,,0.00,WeatherDisplay:10.37,2013-01-13 05:51:00,
2013-01-13 00:56:00,39.0,39.0,30.13,SSW,210,0.0,0.0,100,0.00,,,0.00,WeatherDisplay:10.37,2013-01-13 05:56:00,
2013-01-13 01:01:00,39.2,39.2,30.13,SSW,210,0.0,0.0,100,0.00,,,0.00,WeatherDisplay:10.37,2013-01-13 06:01:00,
2013-01-13 01:06:00,39.3,39.3,30.12,SW,224,2.3,2.3,100,0.00,,,0.00,WeatherDisplay:10.37,2013-01-13 06:06:00,
2013-01-13 01:11:00,38.9,38.9,30.12,SSW,203,1.1,1.1,100,0.00,,,0.00,WeatherDisplay:10.37,2013-01-13 06:11:00,
2013-01-13 01:16:00,39.0,39.0,30.13,SSW,203,0.0,0.0,100,0.00,,,0.00,WeatherDisplay:10.37,2013-01-13 06:16:00,
2013-01-13 01:21:00,38.9,38.9,30.13,SSW,203,0.0,0.0,100,0.00,,,0.00,WeatherDisplay:10.37,2013-01-13 06:21:00,
2013-01-13 01:26:00,39.1,39.1,30.13,SSW,203,0.0,0.0,100,0.00,,,0.00,WeatherDisplay:10.37,2013-01-13 06:26:00,
2013-01-13 01:31:00,39.1,39.1,30.13,SSW,203,0.0,0.0,100,0.00,,,0.00,WeatherDisplay:10.37,2013-01-13 06:31:00,
2013-01-13 01:36:00,39.4,39.4,30.12,SSW,203,0.0,0.0,100,0.00,,,0.00,WeatherDisplay:10.37,2013-01-13 06:36:00,
2013-01-13 01:41:00,39.1,39.1,30.13,SSW,203,0.0,0.0,100,0.00,,,0.00,WeatherDisplay:10.37,2013-01-13 06:41:00,
2013-01-13 01:46:00,39.2,39.2,30.13,SSW,203,0.0,0.0,100,0.00,,,0.00,WeatherDisplay:10.37,2013-01-13 06:46:00,
2013-01-13 01:51:00,39.5,39.5,30.14,SSW,203,0.0,0.0,100,0.00,,,0.00,WeatherDisplay:10.37,2013-01-13 06:51:00,
2013-01-13 01:56:00,39.2,39.2,30.14,SSW,203,0.0,0.0,100,0.00,,,0.00,WeatherDisplay:10.37,2013-01-13 06:56:00,
2013-01-13 02:01:00,39.0,39.0,30.14,SSW,203,0.0,0.0,100,0.00,,,0.00,WeatherDisplay:10.37,2013-01-13 07:01:00,
2013-01-13 02:06:00,39.1,39.1,30.14,SSW,203,0.0,0.0,100,0.00,,,0.00,WeatherDisplay:10.37,2013-01-13 07:06:00,
2013-01-13 02:11:00,39.2,39.2,30.13,SSW,203,0.0,0.0,100,0.00,,,0.00,WeatherDisplay:10.37,2013-01-13 07:11:00,
2013-01-13 02:16:00,39.0,39.0,30.13,SSW,203,0.0,0.0,100,0.00,,,0.00,WeatherDisplay:10.37,2013-01-13 07:16:00,
2013-01-13 02:21:00,38.9,38.9,30.13,SSW,203,0.0,0.0,100,0.00,,,0.00,WeatherDisplay:10.37,2013-01-13 07:21:00,
2013-01-13 02:26:00,38.6,38.6,30.13,SSW,203,0.0,0.0,100,0.00,,,0.00,WeatherDisplay:10.37,2013-01-13 07:26:00,
2013-01-13 02:31:00,38.6,38.6,30.13,SSW,203,0.0,0.0,100,0.00,,,0.00,WeatherDisplay:10.37,2013-01-13 07:31:00,
2013-01-13 02:36:00,38.6,38.6,30.13,SSW,192,3.5,3.5,100,0.00,OVC,,0.00,WeatherDisplay:10.37,2013-01-13 07:36:00,
2013-01-13 02:41:00,38.9,38.9,30.13,SSW,192,0.0,0.0,100,0.00,OVC,,0.00,WeatherDisplay:10.37,2013-01-13 07:41:00,
2013-01-13 02:46:00,39.0,39.0,30.12,SSW,192,0.0,0.0,100,0.00,OVC,,0.00,WeatherDisplay:10.37,2013-01-13 07:46:00,
2013-01-13 02:51:00,39.0,39.0,30.13,SW,215,3.5,3.5,100,0.00,OVC,,0.00,WeatherDisplay:10.37,2013-01-13 07:51:00,
2013-01-13 02:56:00,39.2,39.2,30.12,South,188,3.5,3.5,100,0.00,OVC,,0.00,WeatherDisplay:10.37,2013-01-13 07:56:00,
2013-01-13 03:01:00,39.3,39.3,30.12,South,188,0.0,0.0,100,0.00,OVC,,0.00,WeatherDisplay:10.37,2013-01-13 08:01:00,
2013-01-13 03:06:00,39.3,39.3,30.11,South,188,0.0,0.0,100,0.00,,,0.00,WeatherDisplay:10.37,2013-01-13 08:06:00,
2013-01-13 03:11:00,39.5,39.5,30.11,South,188,0.0,0.0,100,0.00,,,0.00,WeatherDisplay:10.37,2013-01-13 08:11:00,
2013-01-13 03:16:00,39.3,39.3,30.10,South,188,0.0,0.0,100,0.00,,,0.00,WeatherDisplay:10.37,2013-01-13 08:16:00,
2013-01-13 03:21:00,39.0,39.0,30.10,South,188,0.0,0.0,100,0.00,,,0.00,WeatherDisplay:10.37,2013-01-13 08:21:00,
2013-01-13 03:26:00,39.3,39.3,30.11,South,188,0.0,0.0,100,0.00,,,0.00,WeatherDisplay:10.37,2013-01-13 08:26:00,
2013-01-13 03:31:00,39.2,39.2,30.09,South,188,0.0,0.0,100,0.00,,,0.00,WeatherDisplay:10.37,2013-01-13 08:31:00,
2013-01-13 03:36:00,39.2,39.2,30.09,South,188,0.0,0.0,100,0.00,,,0.00,WeatherDisplay:10.37,2013-01-13 08:36:00,
2013-01-13 03:41:00,39.1,39.1,30.09,South,188,0.0,0.0,100,0.00,,,0.00,WeatherDisplay:10.37,2013-01-13 08:41:00,
2013-01-13 03:46:00,39.3,39.3,30.10,South,188,0.0,0.0,100,0.00,,,0.00,WeatherDisplay:10.37,2013-01-13 08:46:00,
2013-01-13 03:51:00,39.2,39.2,30.10,South,188,0.0,0.0,100,0.00,,,0.00,WeatherDisplay:10.37,2013-01-13 08:51:00,
2013-01-13 03:56:00,39.1,39.1,30.10,South,188,0.0,0.0,100,0.00,,,0.00,WeatherDisplay:10.37,2013-01-13 08:56:00,
2013-01-13 04:01:00,38.9,38.9,30.11,South,188,0.0,0.0,100,0.00,,,0.00,WeatherDisplay:10.37,2013-01-13 09:01:00,
2013-01-13 04:06:00,39.2,39.2,30.10,South,188,0.0,0.0,100,0.00,,,0.00,WeatherDisplay:10.37,2013-01-13 09:06:00,
2013-01-13 04:11:00,38.9,38.9,30.10,South,188,0.0,0.0,100,0.00,,,0.00,WeatherDisplay:10.37,2013-01-13 09:11:00,
2013-01-13 04:16:00,38.8,38.8,30.11,South,188,0.0,0.0,100,0.00,,,0.00,WeatherDisplay:10.37,2013-01-13 09:16:00,
2013-01-13 04:21:00,38.3,38.3,30.10,South,188,0.0,0.0,100,0.00,,,0.00,WeatherDisplay:10.37,2013-01-13 09:21:00,
2013-01-13 04:26:00,38.2,38.2,30.10,South,188,0.0,0.0,100,0.00,,,0.00,WeatherDisplay:10.37,2013-01-13 09:26:00,
2013-01-13 04:31:00,38.1,38.1,30.11,South,188,0.0,0.0,100,0.00,,,0.00,WeatherDisplay:10.37,2013-01-13 09:31:00,
2013-01-13 04:36:00,38.3,38.3,30.11,South,188,0.0,0.0,100,0.00,OVC,,0.00,WeatherDisplay:10.37,2013-01-13 09:36:00,
2013-01-13 04:41:00,38.3,38.3,30.11,South,188,0.0,0.0,100,0.00,OVC,,0.00,WeatherDisplay:10.37,2013-01-13 09:41:00,
2013-01-13 04:46:00,38.4,38.4,30.12,South,188,0.0,0.0,100,0.00,OVC,,0.00,WeatherDisplay:10.37,2013-01-13 09:46:00,
2013-01-13 04:51:00,38.3,38.3,30.12,South,188,0.0,0.0,100,0.00,OVC,,0.00,WeatherDisplay:10.37,2013-01-13 09:51:00,
2013-01-13 04:56:00,38.8,38.8,30.12,South,188,0.0,0.0,100,0.00,OVC,,0.00,WeatherDisplay:10.37,2013-01-13 09:56:00,
2013-01-13 05:01:00,38.7,38.7,30.12,South,188,0.0,0.0,100,0.00,OVC,,0.00,WeatherDisplay:10.37,2013-01-13 10:01:00,
2013-01-13 05:06:00,38.9,38.9,30.12,South,188,0.0,0.0,100,0.00,OVC,,0.00,WeatherDisplay:10.37,2013-01-13 10:06:00,
2013-01-13 05:11:00,39.0,39.0,30.11,South,188,0.0,0.0,100,0.00,OVC,,0.00,WeatherDisplay:10.37,2013-01-13 10:11:00,
2013-01-13 05:16:00,38.8,38.8,30.11,South,188,0.0,0.0,100,0.00,OVC,,0.00,WeatherDisplay:10.37,2013-01-13 10:16:00,
2013-01-13 05:21:00,38.6,38.6,30.11,South,188,0.0,0.0,100,0.00,OVC,,0.00,WeatherDisplay:10.37,2013-01-13 10:21:00,
2013-01-13 05:26:00,38.9,38.9,30.11,South,188,0.0,0.0,100,0.00,OVC,,0.00,WeatherDisplay:10.37,2013-01-13 10:26:00,
2013-01-13 05:31:00,38.4,38.4,30.11,South,188,0.0,0.0,100,0.00,OVC,,0.00,WeatherDisplay:10.37,2013-01-13 10:31:00,
2013-01-13 05:36:00,38.5,38.5,30.11,South,188,0.0,0.0,100,0.00,OVC,,0.00,WeatherDisplay:10.37,2013-01-13 10:36:00,
2013-01-13 05:41:00,38.3,38.3,30.11,South,188,0.0,0.0,100,0.00,OVC,,0.00,WeatherDisplay:10.37,2013-01-13 10:41:00,
2013-01-13 05:46:00,38.5,38.5,30.11,South,188,0.0,0.0,100,0.00,OVC,,0.00,WeatherDisplay:10.37,2013-01-13 10:46:00,
2013-01-13 05:51:00,38.7,38.7,30.11,South,188,0.0,0.0,100,0.00,OVC,,0.00,WeatherDisplay:10.37,2013-01-13 10:51:00,
2013-01-13 05:56:00,38.7,38.7,30.10,South,188,0.0,0.0,100,0.00,OVC,,0.00,WeatherDisplay:10.37,2013-01-13 10:56:00,
2013-01-13 06:01:00,38.7,38.7,30.11,South,188,0.0,0.0,100,0.00,OVC,,0.00,WeatherDisplay:10.37,2013-01-13 11:01:00,
2013-01-13 06:06:00,38.8,38.8,30.11,South,188,0.0,0.0,100,0.00,OVC,,0.00,WeatherDisplay:10.37,2013-01-13 11:06:00,
2013-01-13 06:11:00,38.8,38.8,30.11,South,188,0.0,0.0,100,0.00,OVC,,0.00,WeatherDisplay:10.37,2013-01-13 11:11:00,
2013-01-13 06:16:00,39.0,39.0,30.11,South,188,0.0,0.0,100,0.00,OVC,,0.00,WeatherDisplay:10.37,2013-01-13 11:16:00,
2013-01-13 06:21:00,38.8,38.8,30.11,South,188,0.0,0.0,100,0.00,OVC,,0.00,WeatherDisplay:10.37,2013-01-13 11:21:00,
2013-01-13 06:26:00,38.9,38.9,30.11,South,188,0.0,0.0,100,0.00,OVC,,0.00,WeatherDisplay:10.37,2013-01-13 11:26:00,
2013-01-13 06:31:00,38.9,38.9,30.11,South,188,0.0,0.0,100,0.00,OVC,,0.00,WeatherDisplay:10.37,2013-01-13 11:31:00,
2013-01-13 06:36:00,39.0,39.0,30.11,South,188,0.0,0.0,100,0.00,OVC,,0.00,WeatherDisplay:10.37,2013-01-13 11:36:00,
2013-01-13 06:41:00,39.1,39.1,30.11,South,188,0.0,0.0,100,0.00,OVC,,0.00,WeatherDisplay:10.37,2013-01-13 11:41:00,
2013-01-13 06:46:00,39.0,39.0,30.11,South,188,0.0,0.0,100,0.00,OVC,,0.00,WeatherDisplay:10.37,2013-01-13 11:46:00,
2013-01-13 06:51:00,38.9,38.9,30.11,South,188,0.0,0.0,100,0.00,,,0.00,WeatherDisplay:10.37,2013-01-13 11:51:00,
2013-01-13 06:56:00,39.1,39.1,30.11,South,188,0.0,0.0,100,0.00,,,0.00,WeatherDisplay:10.37,2013-01-13 11:56:00,
2013-01-13 07:01:00,39.2,39.2,30.11,South,188,0.0,0.0,100,0.00,,,0.00,WeatherDisplay:10.37,2013-01-13 12:01:00,
2013-01-13 07:06:00,39.3,39.3,30.11,South,188,0.0,0.0,100,0.00,,,0.00,WeatherDisplay:10.37,2013-01-13 12:06:00,
2013-01-13 07:11:00,39.2,39.2,30.11,South,188,0.0,0.0,100,0.00,,,0.00,WeatherDisplay:10.37,2013-01-13 12:11:00,
2013-01-13 07:16:00,39.3,39.3,30.12,South,188,0.0,0.0,100,0.00,,,0.00,WeatherDisplay:10.37,2013-01-13 12:16:00,
2013-01-13 07:21:00,39.1,39.1,30.12,South,188,0.0,0.0,100,0.00,,,0.00,WeatherDisplay:10.37,2013-01-13 12:21:00,
2013-01-13 07:26:00,39.6,39.6,30.13,South,188,0.0,0.0,100,0.00,,,0.00,WeatherDisplay:10.37,2013-01-13 12:26:00,
2013-01-13 07:31:00,39.5,39.5,30.12,South,188,0.0,0.0,100,0.00,,,0.00,WeatherDisplay:10.37,2013-01-13 12:31:00,
2013-01-13 07:36:00,39.3,39.3,30.12,South,188,0.0,0.0,100,0.00,,,0.00,WeatherDisplay:10.37,2013-01-13 12:36:00,
2013-01-13 07:41:00,39.3,39.3,30.12,South,188,0.0,0.0,100,0.00,,,0.00,WeatherDisplay:10.37,2013-01-13 12:41:00,
2013-01-13 07:46:00,39.5,39.5,30.12,South,188,0.0,0.0,100,0.00,,,0.00,WeatherDisplay:10.37,2013-01-13 12:46:00,
2013-01-13 07:51:00,39.7,39.7,30.12,South,188,0.0,0.0,100,0.00,,,0.00,WeatherDisplay:10.37,2013-01-13 12:51:00,
2013-01-13 07:56:00,39.6,39.6,30.12,South,188,0.0,0.0,100,0.00,,,0.00,WeatherDisplay:10.37,2013-01-13 12:56:00,
2013-01-13 08:01:00,39.7,39.7,30.12,South,188,0.0,0.0,100,0.00,,,0.00,WeatherDisplay:10.37,2013-01-13 13:01:00,
2013-01-13 08:06:00,39.8,39.8,30.12,South,188,0.0,0.0,100,0.00,,,0.00,WeatherDisplay:10.37,2013-01-13 13:06:00,
2013-01-13 08:11:00,39.9,39.9,30.12,South,188,0.0,0.0,100,0.00,,,0.00,WeatherDisplay:10.37,2013-01-13 13:11:00,
2013-01-13 08:16:00,39.8,39.8,30.12,South,188,0.0,0.0,100,0.00,,,0.00,WeatherDisplay:10.37,2013-01-13 13:16:00,
2013-01-13 08:21:00,40.0,40.0,30.12,South,188,0.0,0.0,100,0.00,,,0.00,WeatherDisplay:10.37,2013-01-13 13:21:00,
2013-01-13 08:26:00,40.0,40.0,30.12,South,188,0.0,0.0,100,0.00,,,0.00,WeatherDisplay:10.37,2013-01-13 13:26:00,
2013-01-13 08:31:00,40.0,40.0,30.12,South,188,0.0,0.0,100,0.00,,,0.00,WeatherDisplay:10.37,2013-01-13 13:31:00,
2013-01-13 08:36:00,40.3,40.3,30.12,South,188,0.0,0.0,100,0.00,,,0.00,WeatherDisplay:10.37,2013-01-13 13:36:00,
2013-01-13 08:41:00,40.4,40.4,30.12,South,188,0.0,0.0,100,0.00,,,0.00,WeatherDisplay:10.37,2013-01-13 13:41:00,
2013-01-13 08:46:00,40.3,40.3,30.12,South,188,0.0,0.0,100,0.00,,,0.00,WeatherDisplay:10.37,2013-01-13 13:46:00,
2013-01-13 08:51:00,40.5,40.5,30.12,South,188,0.0,0.0,100,0.00,OVC,,0.00,WeatherDisplay:10.37,2013-01-13 13:51:00,
2013-01-13 08:56:00,40.5,40.5,30.12,South,188,0.0,0.0,100,0.00,OVC,,0.00,WeatherDisplay:10.37,2013-01-13 13:56:00,
2013-01-13 09:01:00,40.7,40.7,30.12,South,188,0.0,0.0,100,0.00,OVC,,0.00,WeatherDisplay:10.37,2013-01-13 14:01:00,
2013-01-13 09:06:00,40.7,40.7,30.12,South,188,0.0,0.0,100,0.00,OVC,,0.00,WeatherDisplay:10.37,2013-01-13 14:06:00,
2013-01-13 09:11:00,40.7,40.7,30.12,South,188,0.0,0.0,100,0.00,OVC,,0.00,WeatherDisplay:10.37,2013-01-13 14:11:00,
2013-01-13 09:16:00,40.5,40.5,30.12,South,188,0.0,0.0,100,0.00,OVC,,0.00,WeatherDisplay:10.37,2013-01-13 14:16:00,
2013-01-13 09:21:00,41.0,41.0,30.12,South,188,0.0,0.0,100,0.00,OVC,,0.00,WeatherDisplay:10.37,2013-01-13 14:21:00,
2013-01-13 09:26:00,40.9,40.9,30.12,South,188,0.0,0.0,100,0.00,OVC,,0.00,WeatherDisplay:10.37,2013-01-13 14:26:00,
2013-01-13 09:31:00,41.1,41.1,30.13,South,188,0.0,0.0,100,0.00,OVC,,0.00,WeatherDisplay:10.37,2013-01-13 14:31:00,
2013-01-13 09:36:00,40.9,40.9,30.13,South,188,0.0,0.0,100,0.00,OVC,,0.00,WeatherDisplay:10.37,2013-01-13 14:36:00,
2013-01-13 09:41:00,41.2,41.2,30.13,South,188,0.0,0.0,100,0.00,OVC,,0.00,WeatherDisplay:10.37,2013-01-13 14:41:00,
2013-01-13 09:46:00,41.1,41.1,30.13,South,188,0.0,0.0,100,0.00,OVC,,0.00,WeatherDisplay:10.37,2013-01-13 14:46:00,
2013-01-13 09:51:00,41.2,41.2,30.13,South,188,0.0,0.0,100,0.00,OVC,,0.00,WeatherDisplay:10.37,2013-01-13 14:51:00,
2013-01-13 09:56:00,41.0,41.0,30.14,South,188,0.0,0.0,100,0.00,OVC,,0.00,WeatherDisplay:10.37,2013-01-13 14:56:00,
2013-01-13 10:01:00,41.3,41.3,30.14,South,188,0.0,0.0,100,0.00,OVC,,0.00,WeatherDisplay:10.37,2013-01-13 15:01:00,
2013-01-13 10:06:00,41.2,41.2,30.14,South,188,0.0,0.0,100,0.00,OVC,,0.00,WeatherDisplay:10.37,2013-01-13 15:06:00,
2013-01-13 10:11:00,41.4,41.4,30.13,South,188,0.0,0.0,100,0.00,OVC,,0.00,WeatherDisplay:10.37,2013-01-13 15:11:00,
2013-01-13 10:16:00,41.7,41.7,30.13,South,188,0.0,0.0,100,0.00,OVC,,0.00,WeatherDisplay:10.37,2013-01-13 15:16:00,
2013-01-13 10:21:00,41.8,41.8,30.13,South,188,0.0,0.0,100,0.00,,,0.00,WeatherDisplay:10.37,2013-01-13 15:21:00,
2013-01-13 10:26:00,41.4,41.4,30.13,South,188,0.0,0.0,100,0.00,,,0.00,WeatherDisplay:10.37,2013-01-13 15:26:00,
2013-01-13 10:31:00,41.3,41.3,30.13,South,188,0.0,0.0,100,0.00,,,0.00,WeatherDisplay:10.37,2013-01-13 15:31:00,
2013-01-13 10:36:00,41.1,41.1,30.13,South,188,0.0,0.0,100,0.00,,,0.00,WeatherDisplay:10.37,2013-01-13 15:36:00,
2013-01-13 10:41:00,41.2,41.2,30.12,South,188,0.0,0.0,100,0.00,,,0.00,WeatherDisplay:10.37,2013-01-13 15:41:00,
2013-01-13 10:46:00,41.0,41.0,30.12,South,188,0.0,0.0,100,0.00,,,0.00,WeatherDisplay:10.37,2013-01-13 15:46:00,
2013-01-13 10:51:00,41.4,41.4,30.12,South,188,0.0,0.0,100,0.00,,,0.00,WeatherDisplay:10.37,2013-01-13 15:51:00,
2013-01-13 10:56:00,41.6,41.6,30.12,South,188,0.0,0.0,100,0.00,,,0.00,WeatherDisplay:10.37,2013-01-13 15:56:00,
2013-01-13 11:01:00,41.8,41.8,30.11,South,188,0.0,0.0,100,0.00,,,0.00,WeatherDisplay:10.37,2013-01-13 16:01:00,
2013-01-13 11:06:00,41.8,41.8,30.11,South,188,0.0,0.0,100,0.00,OVC,,0.00,WeatherDisplay:10.37,2013-01-13 16:06:00,
2013-01-13 11:11:00,42.0,42.0,30.11,South,188,0.0,0.0,100,0.00,OVC,,0.00,WeatherDisplay:10.37,2013-01-13 16:11:00,
2013-01-13 11:17:00,42.1,42.1,30.11,South,188,0.0,0.0,100,0.00,OVC,,0.00,WeatherDisplay:10.37,2013-01-13 16:17:00,
2013-01-13 11:22:00,42.0,42.0,30.11,South,188,0.0,0.0,100,0.00,OVC,,0.00,WeatherDisplay:10.37,2013-01-13 16:22:00,
2013-01-13 11:27:00,42.2,42.2,30.10,South,188,0.0,0.0,100,0.00,OVC,,0.00,WeatherDisplay:10.37,2013-01-13 16:27:00,
2013-01-13 11:32:00,42.0,42.0,30.11,South,188,0.0,0.0,100,0.00,OVC,,0.00,WeatherDisplay:10.37,2013-01-13 16:32:00,
2013-01-13 11:37:00,42.2,42.2,30.10,South,188,0.0,0.0,100,0.00,OVC,,0.00,WeatherDisplay:10.37,2013-01-13 16:37:00,
2013-01-13 11:42:00,42.2,42.2,30.10,South,188,0.0,0.0,100,0.00,OVC,,0.00,WeatherDisplay:10.37,2013-01-13 16:42:00,
2013-01-13 11:47:00,42.3,42.3,30.10,South,188,0.0,0.0,100,0.00,OVC,,0.00,WeatherDisplay:10.37,2013-01-13 16:47:00,
2013-01-13 11:52:00,42.2,42.2,30.10,South,188,0.0,0.0,100,0.00,OVC,,0.00,WeatherDisplay:10.37,2013-01-13 16:52:00,
2013-01-13 11:57:00,42.7,42.7,30.09,South,188,0.0,0.0,100,0.00,OVC,,0.00,WeatherDisplay:10.37,2013-01-13 16:57:00,
2013-01-13 12:02:00,42.6,42.6,30.09,South,188,0.0,0.0,100,0.00,OVC,,0.00,WeatherDisplay:10.37,2013-01-13 17:02:00,
2013-01-13 12:07:00,42.5,42.5,30.08,South,188,0.0,0.0,100,0.00,OVC,,0.00,WeatherDisplay:10.37,2013-01-13 17:07:00,
2013-01-13 12:12:00,42.3,42.3,30.08,South,188,0.0,0.0,100,0.00,OVC,,0.00,WeatherDisplay:10.37,2013-01-13 17:12:00,
2013-01-13 12:17:00,42.6,42.6,30.08,South,188,0.0,0.0,100,0.00,OVC,,0.00,WeatherDisplay:10.37,2013-01-13 17:17:00,
2013-01-13 12:22:00,42.7,42.7,30.08,South,188,0.0,0.0,100,0.00,OVC,,0.00,WeatherDisplay:10.37,2013-01-13 17:22:00,
2013-01-13 12:27:00,42.8,42.8,30.08,South,188,0.0,0.0,100,0.00,OVC,,0.00,WeatherDisplay:10.37,2013-01-13 17:27:00,
2013-01-13 12:32:00,42.8,42.8,30.09,South,188,0.0,0.0,100,0.00,OVC,,0.00,WeatherDisplay:10.37,2013-01-13 17:32:00,
2013-01-13 12:37:00,42.8,42.8,30.08,South,188,0.0,0.0,100,0.00,OVC,,0.00,WeatherDisplay:10.37,2013-01-13 17:37:00,
2013-01-13 12:42:00,42.8,42.8,30.08,South,188,0.0,0.0,100,0.00,OVC,,0.00,WeatherDisplay:10.37,2013-01-13 17:42:00,
2013-01-13 12:47:00,43.0,43.0,30.08,South,188,0.0,0.0,100,0.00,OVC,,0.00,WeatherDisplay:10.37,2013-01-13 17:47:00,
2013-01-13 12:52:00,42.8,42.8,30.07,South,188,0.0,0.0,100,0.00,OVC,,0.00,WeatherDisplay:10.37,2013-01-13 17:52:00,
2013-01-13 12:57:00,42.7,42.7,30.07,South,188,0.0,0.0,100,0.00,OVC,,0.00,WeatherDisplay:10.37,2013-01-13 17:57:00,
2013-01-13 13:02:00,42.7,42.7,30.07,South,188,0.0,0.0,100,0.00,OVC,,0.00,WeatherDisplay:10.37,2013-01-13 18:02:00,
2013-01-13 13:07:00,42.9,42.9,30.07,South,188,0.0,0.0,100,0.00,OVC,,0.00,WeatherDisplay:10.37,2013-01-13 18:07:00,
2013-01-13 13:12:00,42.9,42.9,30.06,South,188,0.0,0.0,100,0.00,OVC,,0.00,WeatherDisplay:10.37,2013-01-13 18:12:00,
2013-01-13 13:17:00,42.8,42.8,30.06,South,188,0.0,0.0,100,0.00,OVC,,0.00,WeatherDisplay:10.37,2013-01-13 18:17:00,
2013-01-13 13:22:00,42.8,42.8,30.05,South,188,0.0,0.0,100,0.00,OVC,,0.00,WeatherDisplay:10.37,2013-01-13 18:22:00,
2013-01-13 13:27:00,42.8,42.8,30.04,South,188,0.0,0.0,100,0.00,OVC,,0.00,WeatherDisplay:10.37,2013-01-13 18:27:00,
2013-01-13 13:32:00,42.9,42.9,30.04,South,188,0.0,0.0,100,0.00,OVC,,0.00,WeatherDisplay:10.37,2013-01-13 18:32:00,
2013-01-13 13:37:00,43.1,43.1,30.04,South,188,0.0,0.0,100,0.00,OVC,,0.00,WeatherDisplay:10.37,2013-01-13 18:37:00,
2013-01-13 13:42:00,43.2,43.2,30.03,South,188,0.0,0.0,100,0.00,OVC,,0.00,WeatherDisplay:10.37,2013-01-13 18:42:00,
2013-01-13 13:47:00,43.4,43.4,30.03,SSE,151,5.8,5.8,100,0.00,OVC,,0.00,WeatherDisplay:10.37,2013-01-13 18:47:00,
2013-01-13 13:52:00,43.4,43.4,30.03,East,80,0.0,0.0,100,0.00,OVC,,0.00,WeatherDisplay:10.37,2013-01-13 18:52:00,
2013-01-13 13:57:00,43.6,43.6,30.04,East,80,0.0,0.0,100,0.00,OVC,,0.00,WeatherDisplay:10.37,2013-01-13 18:57:00,
2013-01-13 14:02:00,43.7,43.7,30.04,East,80,0.0,0.0,100,0.00,OVC,,0.00,WeatherDisplay:10.37,2013-01-13 19:02:00,
2013-01-13 14:07:00,43.9,43.9,30.04,ESE,119,4.6,4.6,100,0.00,OVC,,0.00,WeatherDisplay:10.37,2013-01-13 19:07:00,
2013-01-13 14:12:00,43.8,43.8,30.04,SE,126,0.0,0.0,100,0.00,OVC,,0.00,WeatherDisplay:10.37,2013-01-13 19:12:00,
2013-01-13 14:17:00,43.7,43.7,30.04,SE,126,0.0,0.0,100,0.00,OVC,,0.00,WeatherDisplay:10.37,2013-01-13 19:17:00,
2013-01-13 14:22:00,43.6,43.6,30.04,SE,126,0.0,0.0,100,0.00,OVC,,0.00,WeatherDisplay:10.37,2013-01-13 19:22:00,
2013-01-13 14:27:00,43.4,43.4,30.04,SE,126,0.0,0.0,100,0.00,OVC,,0.00,WeatherDisplay:10.37,2013-01-13 19:27:00,
2013-01-13 14:32:00,43.2,43.2,30.04,SE,126,0.0,0.0,100,0.00,OVC,,0.00,WeatherDisplay:10.37,2013-01-13 19:32:00,
2013-01-13 14:37:00,43.1,43.1,30.04,SE,126,0.0,0.0,100,0.00,OVC,,0.00,WeatherDisplay:10.37,2013-01-13 19:37:00,
2013-01-13 14:42:00,43.1,43.1,30.04,SE,126,0.0,0.0,100,0.00,OVC,,0.00,WeatherDisplay:10.37,2013-01-13 19:42:00,
2013-01-13 14:47:00,43.5,43.5,30.04,SE,126,0.0,0.0,100,0.00,OVC,,0.00,WeatherDisplay:10.37,2013-01-13 19:47:00,
2013-01-13 14:52:00,43.5,43.5,30.04,SE,126,0.0,0.0,100,0.00,OVC,,0.00,WeatherDisplay:10.37,2013-01-13 19:52:00,
2013-01-13 14:57:00,43.5,43.5,30.04,SE,126,0.0,0.0,100,0.00,OVC,,0.00,WeatherDisplay:10.37,2013-01-13 19:57:00,
2013-01-13 15:02:00,43.7,43.7,30.04,SE,126,0.0,0.0,100,0.00,OVC,,0.00,WeatherDisplay:10.37,2013-01-13 20:02:00,
2013-01-13 15:07:00,44.0,44.0,30.04,SE,126,0.0,0.0,100,0.00,OVC,,0.00,WeatherDisplay:10.37,2013-01-13 20:07:00,
2013-01-13 15:12:00,44.3,44.3,30.04,SE,126,0.0,0.0,100,0.00,OVC,,0.00,WeatherDisplay:10.37,2013-01-13 20:12:00,
2013-01-13 15:17:00,44.3,44.3,30.04,SE,126,0.0,0.0,100,0.00,OVC,,0.00,WeatherDisplay:10.37,2013-01-13 20:17:00,
2013-01-13 15:22:00,44.5,44.5,30.04,SE,126,0.0,0.0,100,0.00,OVC,,0.00,WeatherDisplay:10.37,2013-01-13 20:22:00,
2013-01-13 15:27:00,44.2,44.2,30.03,SE,126,0.0,0.0,100,0.00,OVC,,0.00,WeatherDisplay:10.37,2013-01-13 20:27:00,
2013-01-13 15:32:00,44.2,44.2,30.03,SE,126,0.0,0.0,100,0.00,OVC,,0.00,WeatherDisplay:10.37,2013-01-13 20:32:00,
2013-01-13 15:37:00,44.2,44.2,30.03,SE,126,0.0,0.0,100,0.00,OVC,,0.00,WeatherDisplay:10.37,2013-01-13 20:37:00,
2013-01-13 15:42:00,44.4,44.4,30.03,SE,126,0.0,0.0,100,0.00,OVC,,0.00,WeatherDisplay:10.37,2013-01-13 20:42:00,
2013-01-13 15:47:00,44.7,44.7,30.04,SE,126,0.0,0.0,100,0.00,OVC,,0.00,WeatherDisplay:10.37,2013-01-13 20:47:00,
2013-01-13 15:52:00,44.6,44.6,30.03,SE,126,0.0,0.0,100,0.00,OVC,,0.00,WeatherDisplay:10.37,2013-01-13 20:52:00,
2013-01-13 15:57:00,44.8,44.8,30.02,SE,126,0.0,0.0,100,0.00,OVC,,0.00,WeatherDisplay:10.37,2013-01-13 20:57:00,
2013-01-13 16:02:00,44.9,44.9,30.03,SE,126,0.0,0.0,100,0.00,OVC,,0.00,WeatherDisplay:10.37,2013-01-13 21:02:00,
2013-01-13 16:07:00,44.8,44.8,30.03,SE,126,0.0,0.0,100,0.00,OVC,,0.00,WeatherDisplay:10.37,2013-01-13 21:07:00,
2013-01-13 16:12:00,44.8,44.8,30.02,SSE,152,1.4,3.2,100,0.00,OVC,,0.00,WeatherDisplay:10.37,2013-01-13 21:12:00,
2013-01-13 16:17:00,45.1,45.1,30.03,SW,215,6.9,6.9,100,0.00,OVC,,0.00,WeatherDisplay:10.37,2013-01-13 21:17:00,
2013-01-13 16:22:00,44.9,44.9,30.03,SSE,152,4.6,4.6,100,0.00,OVC,,0.00,WeatherDisplay:10.37,2013-01-13 21:22:00,
2013-01-13 16:27:00,44.8,44.8,30.02,South,182,6.2,6.2,100,0.00,OVC,,0.00,WeatherDisplay:10.37,2013-01-13 21:27:00,
2013-01-13 16:32:00,44.9,44.9,30.01,South,174,5.8,5.8,100,0.00,OVC,,0.00,WeatherDisplay:10.37,2013-01-13 21:32:00,
2013-01-13 16:37:00,45.2,45.2,30.01,SSE,150,6.9,6.9,100,0.00,OVC,,0.00,WeatherDisplay:10.37,2013-01-13 21:37:00,
2013-01-13 16:42:00,45.0,45.0,30.02,SSE,158,6.9,6.9,100,0.00,OVC,,0.00,WeatherDisplay:10.37,2013-01-13 21:42:00,
2013-01-13 16:47:00,45.1,45.1,30.02,ESE,123,6.9,6.9,100,0.00,OVC,,0.00,WeatherDisplay:10.37,2013-01-13 21:47:00,
2013-01-13 16:52:00,45.1,45.1,30.02,SSE,155,6.5,6.5,100,0.00,OVC,,0.00,WeatherDisplay:10.37,2013-01-13 21:52:00,
2013-01-13 16:57:00,44.9,44.9,30.01,SSW,202,4.6,4.6,100,0.00,OVC,,0.00,WeatherDisplay:10.37,2013-01-13 21:57:00,
2013-01-13 17:02:00,45.1,45.1,30.00,SE,126,0.2,0.0,100,0.00,OVC,,0.00,WeatherDisplay:10.37,2013-01-13 22:02:00,
2013-01-13 17:07:00,45.3,45.3,30.01,SSE,154,4.6,4.6,100,0.00,OVC,,0.00,WeatherDisplay:10.37,2013-01-13 22:07:00,
2013-01-13 17:12:00,45.2,45.2,30.02,South,171,8.5,8.5,100,0.00,OVC,,0.00,WeatherDisplay:10.37,2013-01-13 22:12:00,
2013-01-13 17:17:00,45.1,45.1,30.01,SSW,209,4.6,4.6,100,0.00,OVC,,0.00,WeatherDisplay:10.37,2013-01-13 22:17:00,
2013-01-13 17:22:00,45.3,45.3,30.01,SSE,147,0.0,0.0,100,0.00,OVC,,0.00,WeatherDisplay:10.37,2013-01-13 22:22:00,
2013-01-13 17:27:00,45.3,45.3,30.00,SSE,147,0.0,0.0,100,0.00,OVC,,0.00,WeatherDisplay:10.37,2013-01-13 22:27:00,
2013-01-13 17:32:00,45.3,45.3,30.01,SE,131,1.1,1.1,100,0.00,OVC,,0.00,WeatherDisplay:10.37,2013-01-13 22:32:00,
2013-01-13 17:37:00,45.6,45.6,30.01,SW,230,3.5,3.5,100,0.00,OVC,,0.00,WeatherDisplay:10.37,2013-01-13 22:37:00,
2013-01-13 17:42:00,45.5,45.5,30.00,South,188,0.0,0.0,100,0.00,OVC,,0.00,WeatherDisplay:10.37,2013-01-13 22:42:00,
2013-01-13 17:47:00,45.6,45.6,30.01,SSE,154,4.6,4.6,100,0.00,OVC,,0.00,WeatherDisplay:10.37,2013-01-13 22:47:00,
2013-01-13 17:52:00,45.6,45.6,30.01,South,179,0.0,0.3,100,0.00,OVC,,0.00,WeatherDisplay:10.37,2013-01-13 22:52:00,
2013-01-13 17:57:00,45.6,45.6,30.01,South,179,0.0,0.0,100,0.00,OVC,,0.00,WeatherDisplay:10.37,2013-01-13 22:57:00,
2013-01-13 18:02:00,45.6,45.6,30.02,South,179,0.0,0.0,100,0.00,OVC,,0.00,WeatherDisplay:10.37,2013-01-13 23:02:00,
2013-01-13 18:07:00,45.7,45.7,30.02,South,179,0.0,0.0,100,0.00,OVC,,0.00,WeatherDisplay:10.37,2013-01-13 23:07:00,
2013-01-13 18:12:00,45.6,45.6,30.02,South,179,0.0,0.0,100,0.00,OVC,,0.00,WeatherDisplay:10.37,2013-01-13 23:12:00,
2013-01-13 18:17:00,45.4,45.4,30.01,West,278,8.1,8.1,100,0.00,OVC,,0.00,WeatherDisplay:10.37,2013-01-13 23:17:00,
2013-01-13 18:22:00,45.6,45.6,30.01,WSW,253,8.1,8.1,100,0.00,OVC,,0.00,WeatherDisplay:10.37,2013-01-13 23:22:00,
2013-01-13 18:27:00,45.8,45.8,30.01,West,260,4.6,4.6,100,0.00,OVC,,0.00,WeatherDisplay:10.37,2013-01-13 23:27:00,
2013-01-13 18:32:00,45.6,45.6,30.01,West,260,0.0,0.0,100,0.00,OVC,,0.00,WeatherDisplay:10.37,2013-01-13 23:32:00,
2013-01-13 18:37:00,45.6,45.6,30.01,West,260,0.0,0.0,100,0.00,OVC,,0.00,WeatherDisplay:10.37,2013-01-13 23:37:00,
2013-01-13 18:42:00,45.5,45.5,30.02,West,260,0.0,0.0,100,0.00,OVC,,0.00,WeatherDisplay:10.37,2013-01-13 23:42:00,
2013-01-13 18:47:00,45.4,45.4,30.02,West,260,0.0,0.0,100,0.00,OVC,,0.00,WeatherDisplay:10.37,2013-01-13 23:47:00,
2013-01-13 18:52:00,45.5,45.5,30.02,West,281,4.6,4.6,100,0.00,OVC,,0.00,WeatherDisplay:10.37,2013-01-13 23:52:00,
2013-01-13 18:57:00,45.5,45.5,30.02,West,261,5.8,5.8,100,0.00,OVC,,0.00,WeatherDisplay:10.37,2013-01-13 23:57:00,
2013-01-13 19:02:00,45.4,45.4,30.03,SW,217,4.6,4.6,100,0.00,OVC,,0.00,WeatherDisplay:10.37,2013-01-14 00:02:00,
2013-01-13 19:07:00,45.2,45.2,30.02,SSW,200,11.5,11.5,100,0.00,OVC,,0.00,WeatherDisplay:10.37,2013-01-14 00:07:00,
2013-01-13 19:12:00,45.2,45.2,30.02,SSW,198,11.5,11.5,100,0.00,OVC,,0.00,WeatherDisplay:10.37,2013-01-14 00:12:00,
2013-01-13 19:17:00,45.3,45.3,30.03,SW,232,5.8,5.8,100,0.00,OVC,,0.00,WeatherDisplay:10.37,2013-01-14 00:17:00,
2013-01-13 19:23:00,45.2,45.2,30.03,SW,224,5.8,5.8,100,0.00,OVC,,0.00,WeatherDisplay:10.37,2013-01-14 00:23:00,
2013-01-13 19:28:00,45.0,45.0,30.02,WSW,240,6.9,6.9,100,0.00,OVC,,0.00,WeatherDisplay:10.37,2013-01-14 00:28:00,
2013-01-13 19:33:00,45.0,45.0,30.02,SSW,193,0.0,0.0,100,0.00,OVC,,0.00,WeatherDisplay:10.37,2013-01-14 00:33:00,
2013-01-13 19:38:00,44.7,44.7,30.02,SSW,195,3.5,3.5,100,0.00,OVC,,0.00,WeatherDisplay:10.37,2013-01-14 00:38:00,
2013-01-13 19:43:00,44.7,44.7,30.02,SSW,195,0.0,0.0,100,0.00,OVC,,0.00,WeatherDisplay:10.37,2013-01-14 00:43:00,
2013-01-13 19:48:00,44.7,44.7,30.02,SSW,195,0.0,0.0,100,0.00,OVC,,0.00,WeatherDisplay:10.37,2013-01-14 00:48:00,
2013-01-13 19:53:00,44.8,44.8,30.02,SSW,195,0.0,0.0,100,0.00,OVC,,0.00,WeatherDisplay:10.37,2013-01-14 00:53:00,
2013-01-13 19:58:00,44.7,44.7,30.03,SSW,195,0.0,0.0,100,0.00,OVC,,0.00,WeatherDisplay:10.37,2013-01-14 00:58:00,
2013-01-13 20:03:00,44.8,44.8,30.02,SSW,195,0.0,0.0,100,0.00,OVC,,0.00,WeatherDisplay:10.37,2013-01-14 01:03:00,
2013-01-13 20:08:00,44.8,44.8,30.02,SSW,195,0.0,0.0,100,0.00,OVC,,0.00,WeatherDisplay:10.37,2013-01-14 01:08:00,
2013-01-13 20:13:00,44.6,44.6,30.03,SSW,195,0.0,0.0,100,0.00,OVC,,0.00,WeatherDisplay:10.37,2013-01-14 01:13:00,
2013-01-13 20:18:00,44.3,44.3,30.03,SW,216,0.0,0.0,100,0.00,OVC,,0.00,WeatherDisplay:10.37,2013-01-14 01:18:00,
2013-01-13 20:23:00,44.5,44.5,30.03,SW,216,0.0,0.0,100,0.00,OVC,,0.00,WeatherDisplay:10.37,2013-01-14 01:23:00,
2013-01-13 20:28:00,44.7,44.7,30.02,SW,216,0.0,0.0,100,0.00,OVC,,0.00,WeatherDisplay:10.37,2013-01-14 01:28:00,
2013-01-13 20:33:00,44.7,44.7,30.02,SW,216,0.0,0.0,100,0.00,OVC,,0.00,WeatherDisplay:10.37,2013-01-14 01:33:00,
2013-01-13 20:38:00,44.6,44.6,30.03,SW,216,0.0,0.0,100,0.00,OVC,,0.00,WeatherDisplay:10.37,2013-01-14 01:38:00,
2013-01-13 20:43:00,44.7,44.7,30.02,SW,216,0.0,0.0,100,0.00,OVC,,0.00,WeatherDisplay:10.37,2013-01-14 01:43:00,
2013-01-13 20:48:00,44.8,44.8,30.02,SW,216,0.0,0.0,100,0.00,OVC,,0.00,WeatherDisplay:10.37,2013-01-14 01:48:00,
2013-01-13 20:53:00,44.7,44.7,30.01,SW,216,0.0,0.0,100,0.00,OVC,,0.00,WeatherDisplay:10.37,2013-01-14 01:53:00,
2013-01-13 20:58:00,44.7,44.7,30.01,SW,216,0.0,0.0,100,0.00,OVC,,0.00,WeatherDisplay:10.37,2013-01-14 01:58:00,
2013-01-13 21:03:00,44.8,44.8,30.02,SW,216,0.0,0.0,100,0.00,,,0.00,WeatherDisplay:10.37,2013-01-14 02:03:00,
2013-01-13 21:08:00,44.5,44.5,30.02,SW,216,0.0,0.0,100,0.00,,,0.00,WeatherDisplay:10.37,2013-01-14 02:08:00,
2013-01-13 21:13:00,44.4,44.4,30.00,SW,216,0.0,0.0,100,0.00,,,0.00,WeatherDisplay:10.37,2013-01-14 02:13:00,
2013-01-13 21:18:00,44.3,44.3,30.00,SW,216,0.0,0.0,100,0.00,,,0.00,WeatherDisplay:10.37,2013-01-14 02:18:00,
2013-01-13 21:23:00,44.4,44.4,30.00,SW,216,0.0,0.0,100,0.00,,,0.00,WeatherDisplay:10.37,2013-01-14 02:23:00,
2013-01-13 21:28:00,44.5,44.5,30.00,SW,216,0.0,0.0,100,0.00,,,0.00,WeatherDisplay:10.37,2013-01-14 02:28:00,
2013-01-13 21:33:00,44.6,44.6,30.00,SSE,165,1.1,0.0,100,0.00,,,0.00,WeatherDisplay:10.37,2013-01-14 02:33:00,
2013-01-13 21:38:00,44.3,44.3,30.00,SSE,165,0.0,0.0,100,0.00,,,0.00,WeatherDisplay:10.37,2013-01-14 02:38:00,
2013-01-13 21:43:00,44.2,44.2,30.00,SSE,165,0.0,0.0,100,0.00,,,0.00,WeatherDisplay:10.37,2013-01-14 02:43:00,
2013-01-13 21:48:00,44.0,44.0,30.00,SSE,165,0.0,0.0,100,0.00,,,0.00,WeatherDisplay:10.37,2013-01-14 02:48:00,
2013-01-13 21:53:00,43.6,43.6,30.00,SSE,165,0.0,0.0,100,0.00,,,0.00,WeatherDisplay:10.37,2013-01-14 02:53:00,
2013-01-13 21:58:00,43.6,43.6,30.00,SSE,165,0.0,0.0,100,0.00,,,0.00,WeatherDisplay:10.37,2013-01-14 02:58:00,
2013-01-13 22:03:00,43.7,43.7,30.00,SSE,165,0.0,0.0,100,0.00,,,0.00,WeatherDisplay:10.37,2013-01-14 03:03:00,
2013-01-13 22:08:00,43.7,43.7,30.00,South,175,4.6,4.6,100,0.00,,,0.00,WeatherDisplay:10.37,2013-01-14 03:08:00,
2013-01-13 22:13:00,43.9,43.9,30.00,WSW,240,3.5,3.5,100,0.00,,,0.00,WeatherDisplay:10.37,2013-01-14 03:13:00,
2013-01-13 22:18:00,43.8,43.8,30.00,SW,232,3.5,3.5,100,0.00,,,0.00,WeatherDisplay:10.37,2013-01-14 03:18:00,
2013-01-13 22:23:00,44.0,44.0,30.00,SSW,213,0.0,0.0,100,0.00,,,0.00,WeatherDisplay:10.37,2013-01-14 03:23:00,
2013-01-13 22:28:00,43.9,43.9,30.00,SSE,165,1.3,0.0,100,0.00,,,0.00,WeatherDisplay:10.37,2013-01-14 03:28:00,
2013-01-13 22:33:00,43.8,43.8,30.00,WSW,237,0.0,0.0,100,0.00,,,0.00,WeatherDisplay:10.37,2013-01-14 03:33:00,
2013-01-13 22:38:00,43.9,43.9,30.00,South,189,6.9,6.9,100,0.00,,,0.00,WeatherDisplay:10.37,2013-01-14 03:38:00,
2013-01-13 22:43:00,43.8,43.8,30.00,SSE,148,2.3,0.0,100,0.00,,,0.00,WeatherDisplay:10.37,2013-01-14 03:43:00,
2013-01-13 22:48:00,43.9,43.9,30.00,SSE,148,0.0,0.0,100,0.00,,,0.00,WeatherDisplay:10.37,2013-01-14 03:48:00,
2013-01-13 22:53:00,44.0,44.0,30.00,SSE,148,0.0,0.0,100,0.00,,,0.00,WeatherDisplay:10.37,2013-01-14 03:53:00,
2013-01-13 22:58:00,44.2,44.2,30.00,SSW,193,0.0,0.0,100,0.00,,,0.00,WeatherDisplay:10.37,2013-01-14 03:58:00,
2013-01-13 23:03:00,44.2,44.2,30.00,SW,226,3.3,3.3,100,0.00,,,0.00,WeatherDisplay:10.37,2013-01-14 04:03:00,
2013-01-13 23:08:00,44.2,44.2,30.00,SW,220,0.0,0.0,100,0.00,,,0.00,WeatherDisplay:10.37,2013-01-14 04:08:00,
2013-01-13 23:13:00,44.3,44.3,30.00,SW,220,0.0,0.0,100,0.00,,,0.00,WeatherDisplay:10.37,2013-01-14 04:13:00,
2013-01-13 23:18:00,44.3,44.3,30.00,SW,220,0.0,0.0,100,0.00,,,0.00,WeatherDisplay:10.37,2013-01-14 04:18:00,
2013-01-13 23:23:00,44.5,44.5,30.00,SW,220,0.0,0.0,100,0.00,,,0.00,WeatherDisplay:10.37,2013-01-14 04:23:00,
2013-01-13 23:28:00,44.5,44.5,29.99,SW,220,0.0,0.0,100,0.00,,,0.00,WeatherDisplay:10.37,2013-01-14 04:28:00,
2013-01-13 23:33:00,44.4,44.4,29.99,SW,220,0.0,0.0,100,0.00,,,0.00,WeatherDisplay:10.37,2013-01-14 04:33:00,
2013-01-13 23:38:00,44.4,44.4,29.99,SW,220,0.0,0.0,100,0.00,,,0.00,WeatherDisplay:10.37,2013-01-14 04:38:00,
2013-01-13 23:43:00,44.6,44.6,29.99,SW,220,0.0,0.0,100,0.00,,,0.00,WeatherDisplay:10.37,2013-01-14 04:43:00,
2013-01-13 23:48:00,44.5,44.5,29.99,SSE,165,0.0,0.0,100,0.00,,,0.00,WeatherDisplay:10.37,2013-01-14 04:48:00,
2013-01-13 23:53:00,44.7,44.7,29.99,SSE,165,0.0,0.0,100,0.00,,,0.00,WeatherDisplay:10.37,2013-01-14 04:53:00,
2013-01-13 23:58:00,44.2,44.2,29.99,SSE,165,0.0,0.0,100,0.00,,,0.00,WeatherDisplay:10.37,2013-01-14 04:58:00,